W0DXV Weather Reports


time (UTC)temp
F
wind
direction
speed
knots
gust
knots
rain 1hr
in
rain 24hr
in
rain mn
in
humidity
%
barometer
mb
20260510190433 84 188 2.6 2.6 0.00 0.00 0.00 27 1011.2
20260510185929 83 234 1.7 1.7 0.00 0.00 0.00 28 1011.4
20260510185427 82 44 0.9 0.9 0.00 0.00 0.00 33 1011.5
20260510184924 84 203 0.9 0.9 0.00 0.00 0.00 28 1011.4
20260510184421 84 264 0.0 0.9 0.00 0.00 0.00 28 1011.6
20260510183920 84 160 0.0 0.0 0.00 0.00 0.00 30 1011.7
20260510183417 83 304 0.0 0.9 0.00 0.00 0.00 29 1011.7
20260510182912 84 238 1.7 1.7 0.00 0.00 0.00 31 1011.5
20260510182409 83 269 0.9 0.9 0.00 0.00 0.00 33 1011.6
20260510181904 83 237 1.7 1.7 0.00 0.00 0.00 31 1011.8
20260510181402 83 251 1.7 1.7 0.00 0.00 0.00 31 1011.7
20260510180858 82 313 0.9 0.9 0.00 0.00 0.00 30 1011.7
20260510180355 82 131 0.9 0.9 0.00 0.00 0.00 30 1011.8
20260510175853 82 195 2.6 2.6 0.00 0.00 0.00 28 1012.1
20260510175349 81 37 0.9 0.9 0.00 0.00 0.00 28 1011.8
20260510174845 81 105 1.7 1.7 0.00 0.00 0.00 30 1012.0
20260510174342 80 35 0.9 1.7 0.00 0.00 0.00 28 1012.0
20260510173838 83 67 0.9 0.9 0.00 0.00 0.00 27 1012.1
20260510173334 83 294 1.7 1.7 0.00 0.00 0.00 29 1012.1
20260510172831 82 324 0.9 0.9 0.00 0.00 0.00 36 1012.1
20260510172327 81 128 0.0 0.9 0.00 0.00 0.00 34 1012.1
20260510171823 81 49 1.7 1.7 0.00 0.00 0.00 28 1012.3
20260510171321 81 252 0.9 0.9 0.00 0.00 0.00 35 1012.3
20260510170818 81 56 1.7 1.7 0.00 0.00 0.00 32 1012.2
20260510170314 80 229 0.9 1.7 0.00 0.00 0.00 37 1012.1
20260510165809 79 8 2.6 2.6 0.00 0.00 0.00 32 1012.2
20260510165307 79 139 1.7 1.7 0.00 0.00 0.00 32 1012.4
20260510164804 81 13 3.5 4.3 0.00 0.00 0.00 33 1012.2
20260510164301 80 160 0.9 0.9 0.00 0.00 0.00 34 1012.2
20260510163801 82 269 0.9 0.9 0.00 0.00 0.00 37 1012.4
20260510163257 79 272 0.0 0.9 0.00 0.00 0.00 35 1012.3
20260510162756 80 2 1.7 1.7 0.00 0.00 0.00 34 1012.3
20260510162254 80 151 0.9 0.9 0.00 0.00 0.00 36 1012.5
20260510161749 80 267 0.9 0.9 0.00 0.00 0.00 38 1012.5
20260510161246 79 284 0.9 0.9 0.00 0.00 0.00 41 1012.5
20260510160743 80 280 0.9 1.7 0.00 0.00 0.00 40 1012.7
20260510160239 79 299 0.9 1.7 0.00 0.00 0.00 41 1012.6
20260510155734 79 205 0.9 0.9 0.00 0.00 0.00 41 1012.6
20260510155230 80 283 0.9 0.9 0.00 0.00 0.00 41 1012.5
20260510154727 80 235 0.9 1.7 0.00 0.00 0.00 50 1012.5
20260510154222 79 35 0.9 1.7 0.00 0.00 0.00 45 1012.6
20260510153718 79 240 0.9 0.9 0.00 0.00 0.00 44 1012.5
20260510153214 77 282 0.9 1.7 0.00 0.00 0.00 46 1012.8
20260510152711 76 122 1.7 1.7 0.00 0.00 0.00 48 1012.6
20260510152206 76 22 1.7 1.7 0.00 0.00 0.00 48 1012.8
20260510151704 77 27 0.9 1.7 0.00 0.00 0.00 45 1012.8
20260510151202 78 273 0.9 0.9 0.00 0.00 0.00 47 1012.7
20260510150657 77 68 0.0 0.9 0.00 0.00 0.00 47 1012.7
20260510150153 77 42 2.6 2.6 0.00 0.00 0.00 47 1012.8
20260510145649 77 125 0.9 1.7 0.00 0.00 0.00 50 1012.7
20260510145146 77 218 0.9 0.9 0.00 0.00 0.00 55 1012.7
20260510144642 75 263 0.9 0.9 0.00 0.00 0.00 53 1012.5
20260510144139 75 8 1.7 1.7 0.00 0.00 0.00 55 1012.7
20260510143634 74 240 0.9 0.9 0.00 0.00 0.00 60 1013.0
20260510143131 72 49 0.9 0.9 0.00 0.00 0.00 54 1012.9
20260510142627 73 45 2.6 2.6 0.00 0.00 0.00 56 1012.6
20260510142124 74 32 0.0 0.0 0.00 0.00 0.00 54 1012.7
20260510141621 72 260 0.9 0.9 0.00 0.00 0.00 67 1012.8
20260510141120 72 230 0.9 0.9 0.00 0.00 0.00 64 1012.9
20260510140615 71 55 2.6 2.6 0.00 0.00 0.00 59 1012.6
20260510140114 73 244 0.0 0.9 0.00 0.00 0.00 66 1012.6
20260510135610 72 304 0.0 0.9 0.00 0.00 0.00 66 1012.7
20260510135106 72 57 0.0 0.9 0.00 0.00 0.00 65 1013.0
20260510134603 71 209 0.9 0.9 0.00 0.00 0.00 70 1013.0
20260510134100 70 209 0.0 0.9 0.00 0.00 0.00 73 1012.6
20260510133556 69 42 0.0 0.9 0.00 0.00 0.00 74 1012.8
20260510133052 68 275 0.0 0.9 0.00 0.00 0.00 78 1012.7
20260510132549 68 274 0.0 0.0 0.00 0.00 0.00 76 1012.8
20260510132046 68 274 0.0 0.0 0.00 0.00 0.00 80 1012.7
20260510131544 67 274 0.0 0.9 0.00 0.00 0.00 81 1012.6
20260510131041 66 274 0.0 0.0 0.00 0.00 0.00 84 1012.7
20260510130537 65 274 0.0 0.9 0.00 0.00 0.00 87 1012.7
20260510130035 63 274 0.0 0.9 0.00 0.00 0.00 88 1012.7
20260510125531 63 275 0.9 0.9 0.00 0.00 0.00 89 1012.4
20260510125027 63 275 0.0 0.9 0.00 0.00 0.00 87 1012.5
20260510124524 63 275 0.9 0.9 0.00 0.00 0.00 87 1012.7
20260510124021 62 275 0.0 0.9 0.00 0.00 0.00 89 1012.5
20260510123516 61 275 0.0 0.9 0.00 0.00 0.00 93 1012.6
20260510123012 60 275 0.9 0.9 0.00 0.00 0.00 96 1012.5
20260510122508 59 276 0.9 0.9 0.00 0.00 0.00 99 1012.4
20260510122004 58 287 0.0 0.9 0.00 0.00 0.00 99 1012.0
20260510121501 57 287 0.0 0.0 0.00 0.00 0.00 99 1012.0
20260510120959 57 287 0.0 0.0 0.00 0.00 0.00 99 1012.0
20260510120456 57 287 0.0 0.0 0.00 0.00 0.00 99 1011.9
20260510115951 57 287 0.0 0.0 0.00 0.00 0.00 99 1011.8
20260510115449 57 288 0.0 0.0 0.00 0.00 0.00 99 1011.6
20260510114945 57 288 0.0 0.0 0.00 0.00 0.00 99 1011.8
20260510114442 55 288 0.0 0.0 0.00 0.00 0.00 99 1011.6
20260510113937 55 288 0.0 0.0 0.00 0.00 0.00 99 1011.7
20260510113433 54 288 0.0 0.0 0.00 0.00 0.00 99 1011.5
20260510112931 54 288 0.0 0.0 0.00 0.00 0.00 99 1011.3
20260510112428 53 289 0.0 0.0 0.00 0.00 0.00 99 1011.1
20260510111924 53 288 0.0 0.0 0.00 0.00 0.00 99 1011.3
20260510111420 53 285 0.0 0.0 0.00 0.00 0.00 99 1011.2
20260510110916 53 281 0.0 0.0 0.00 0.00 0.00 99 1011.1
20260510110412 53 281 0.0 0.0 0.00 0.00 0.00 99 1011.0
20260510105908 53 281 0.0 0.0 0.00 0.00 0.00 99 1010.8
20260510105403 53 281 0.0 0.0 0.00 0.00 0.00 99 1010.9
20260510104859 53 281 0.0 0.0 0.00 0.00 0.00 99 1010.8
20260510104356 53 281 0.0 0.0 0.00 0.00 0.00 99 1010.6
20260510103852 53 281 0.0 0.0 0.00 0.00 0.00 99 1010.6
20260510103349 53 281 0.0 0.0 0.00 0.00 0.00 99 1010.4
20260510102844 53 281 0.0 0.0 0.00 0.00 0.00 99 1010.6
20260510102335 53 281 0.0 0.0 0.00 0.00 0.00 99 1010.4
20260510101832 53 281 0.0 0.0 0.00 0.00 0.00 99 1010.5
20260510101331 53 281 0.0 0.0 0.00 0.00 0.00 99 1010.3
20260510100827 53 281 0.0 0.0 0.00 0.00 0.00 99 1010.1
20260510100324 53 281 0.0 0.0 0.00 0.00 0.00 99 1010.2
20260510095820 52 281 0.0 0.0 0.00 0.00 0.00 99 1010.3
20260510095315 53 281 0.0 0.0 0.00 0.00 0.00 99 1010.1
20260510094809 53 281 0.0 0.0 0.00 0.00 0.00 99 1009.7
20260510094304 53 281 0.0 0.0 0.00 0.00 0.00 99 1009.7
20260510093801 53 281 0.0 0.0 0.00 0.00 0.00 99 1009.9
20260510093257 53 281 0.0 0.0 0.00 0.00 0.00 99 1009.7
20260510092753 53 281 0.0 0.0 0.00 0.00 0.00 99 1009.9
20260510092249 54 281 0.0 0.0 0.00 0.00 0.00 99 1009.8
20260510091745 54 281 0.0 0.0 0.00 0.00 0.00 99 1009.8
20260510091243 54 281 0.0 0.0 0.00 0.00 0.00 99 1009.6
20260510090739 54 281 0.0 0.0 0.00 0.00 0.00 99 1009.7
20260510090236 54 281 0.0 0.0 0.00 0.00 0.00 99 1009.5
20260510085731 54 281 0.0 0.0 0.00 0.00 0.00 99 1009.6
20260510085226 54 281 0.0 0.0 0.00 0.00 0.00 99 1009.5
20260510084722 54 281 0.0 0.0 0.00 0.00 0.00 99 1009.3
20260510084219 54 281 0.0 0.0 0.00 0.00 0.00 99 1009.4
20260510083716 54 281 0.0 0.0 0.00 0.00 0.00 99 1009.4
20260510083213 55 281 0.0 0.0 0.00 0.00 0.00 99 1009.2
20260510082709 55 281 0.0 0.0 0.00 0.00 0.00 99 1009.3
20260510082205 55 281 0.0 0.0 0.00 0.00 0.00 99 1009.1
20260510081704 55 281 0.0 0.0 0.00 0.00 0.00 99 1008.9
20260510081201 55 281 0.0 0.0 0.00 0.00 0.00 99 1009.2
20260510080655 55 281 0.0 0.0 0.00 0.00 0.00 99 1009.1
20260510080152 55 281 0.0 0.0 0.00 0.00 0.00 99 1008.9
20260510075649 55 281 0.0 0.9 0.00 0.00 0.00 99 1008.9
20260510075147 55 281 0.0 0.0 0.00 0.00 0.00 99 1008.8
20260510074643 55 281 0.0 0.0 0.00 0.00 0.00 99 1008.8
20260510074139 55 281 0.0 0.0 0.00 0.00 0.00 99 1008.8
20260510073636 55 281 0.0 0.0 0.00 0.00 0.00 99 1008.8
20260510073132 55 281 0.0 0.0 0.00 0.00 0.00 99 1008.8
20260510072628 56 281 0.0 0.0 0.00 0.00 0.00 99 1008.7
20260510072125 56 281 0.0 0.0 0.00 0.00 0.00 99 1008.7
20260510071620 56 281 0.0 0.0 0.00 0.00 0.00 99 1008.8
20260510071118 56 281 0.0 0.0 0.00 0.00 0.00 99 1008.8
20260510070615 56 281 0.0 0.0 0.00 0.00 0.00 99 1008.7
20260510070113 56 281 0.0 0.0 0.00 0.00 0.00 99 1008.6
20260510065608 56 281 0.0 0.0 0.00 0.00 0.00 99 1008.7
20260510065104 56 281 0.0 0.0 0.00 0.00 0.00 99 1008.7
20260510064555 56 282 0.0 0.0 0.00 0.00 0.00 99 1008.4
20260510064052 56 277 0.0 0.0 0.00 0.00 0.00 99 1008.4
20260510063549 57 272 0.0 0.0 0.00 0.00 0.00 99 1008.6
20260510063046 57 272 0.0 0.0 0.00 0.00 0.00 99 1008.7
20260510062542 57 272 0.0 0.0 0.00 0.00 0.00 99 1008.7
20260510062037 57 272 0.0 0.0 0.00 0.00 0.00 99 1008.5
20260510061534 57 272 0.0 0.0 0.00 0.00 0.00 99 1008.5
20260510061031 57 272 0.0 0.0 0.00 0.00 0.00 99 1008.6
20260510060527 57 272 0.0 0.0 0.00 0.00 0.00 99 1008.8
20260510060023 57 273 0.0 0.0 0.00 0.00 0.00 99 1008.6
20260510055520 57 273 0.0 0.0 0.00 0.00 0.00 99 1008.7
20260510055018 57 273 0.0 0.0 0.00 0.00 0.00 99 1008.8
20260510054513 57 273 0.0 0.0 0.00 0.00 0.00 99 1008.7
20260510054009 58 273 0.0 0.0 0.00 0.00 0.00 99 1008.8
20260510053503 58 263 0.0 0.0 0.00 0.00 0.00 99 1008.6
20260510053001 58 263 0.0 0.0 0.00 0.00 0.00 99 1008.7
20260510052456 58 263 0.0 0.0 0.00 0.00 0.00 98 1008.8
20260510051953 58 262 0.0 0.0 0.00 0.00 0.00 98 1008.9
20260510051448 58 260 0.0 0.0 0.00 0.00 0.00 98 1009.0
20260510050945 58 260 0.0 0.0 0.00 0.00 0.00 98 1008.9
20260510050442 58 260 0.0 0.0 0.00 0.00 0.00 98 1009.0
20260510045939 58 5 0.0 0.0 0.00 0.00 0.00 98 1008.8
20260510045436 58 5 0.0 0.9 0.00 0.00 0.00 98 1008.8
20260510044933 59 3 0.0 0.0 0.00 0.00 0.00 98 1009.1
20260510044430 58 2 0.0 0.0 0.00 0.00 0.00 98 1008.9
20260510043927 59 2 0.0 0.0 0.00 0.00 0.00 98 1008.9
20260510043423 59 2 0.0 0.0 0.00 0.00 0.00 98 1008.8
20260510042921 59 2 0.0 0.0 0.00 0.00 0.00 98 1008.9
20260510042416 59 2 0.0 0.0 0.00 0.00 0.00 98 1008.9
20260510041912 59 3 0.0 0.0 0.00 0.00 0.00 98 1009.0
20260510041410 59 5 0.0 0.0 0.00 0.00 0.00 98 1009.0
20260510040908 59 7 0.9 0.9 0.00 0.00 0.00 97 1008.8
20260510040404 59 300 0.0 0.0 0.00 0.00 0.00 97 1008.9
20260510035900 59 300 0.0 0.0 0.00 0.00 0.00 97 1009.0
20260510035356 59 300 0.0 0.0 0.00 0.00 0.00 97 1009.3
20260510034851 59 300 0.0 0.0 0.00 0.00 0.00 97 1009.0
20260510034350 59 300 0.0 0.0 0.00 0.00 0.00 97 1008.8
20260510033846 59 300 0.0 0.0 0.00 0.00 0.00 97 1008.8
20260510033342 60 300 0.0 0.0 0.00 0.00 0.00 96 1009.0
20260510032839 60 300 0.0 0.0 0.00 0.00 0.00 96 1009.0
20260510032336 60 300 0.0 0.0 0.00 0.00 0.00 96 1009.1
20260510031831 60 300 0.0 0.0 0.00 0.00 0.00 96 1009.0
20260510031326 60 300 0.0 0.0 0.00 0.00 0.00 96 1009.0
20260510030821 60 300 0.0 0.0 0.00 0.00 0.00 96 1008.9
20260510030318 60 300 0.0 0.0 0.00 0.00 0.00 95 1009.0
20260510025815 60 300 0.0 0.0 0.00 0.00 0.00 95 1009.0
20260510025312 61 300 0.0 0.0 0.00 0.00 0.00 95 1009.0
20260510024809 61 300 0.0 0.0 0.00 0.00 0.00 95 1008.8
20260510024306 61 300 0.0 0.0 0.00 0.00 0.00 95 1009.0
20260510023802 61 300 0.0 0.0 0.00 0.00 0.00 95 1009.0
20260510023259 61 300 0.0 0.0 0.00 0.00 0.00 95 1008.7
20260510022756 61 300 0.0 0.0 0.00 0.00 0.00 95 1008.7
20260510022255 61 300 0.0 0.0 0.00 0.00 0.00 94 1008.6
20260510021754 61 300 0.0 0.0 0.00 0.00 0.00 94 1008.7
20260510021253 61 300 0.0 0.0 0.00 0.00 0.00 94 1008.5
20260510020748 61 300 0.0 0.0 0.00 0.00 0.00 94 1008.5
20260510020243 61 300 0.0 0.0 0.00 0.00 0.00 94 1008.8
20260510015739 61 300 0.0 0.0 0.00 0.00 0.00 93 1008.4
20260510015236 62 300 0.0 0.0 0.00 0.00 0.00 93 1008.4
20260510014731 62 270 0.0 0.0 0.00 0.00 0.00 92 1008.5
20260510014228 62 247 0.0 0.0 0.00 0.00 0.00 92 1008.3
20260510013724 62 247 0.0 0.0 0.00 0.00 0.00 92 1008.1
20260510013220 63 247 0.0 0.0 0.00 0.00 0.00 92 1007.9
20260510012719 63 247 0.0 0.0 0.00 0.00 0.00 91 1008.3
20260510012215 63 247 0.0 0.0 0.00 0.00 0.00 90 1008.0
20260510011709 63 247 0.0 0.0 0.00 0.00 0.00 90 1007.9
20260510011205 63 247 0.0 0.0 0.00 0.00 0.00 90 1008.1
20260510010702 63 247 0.0 0.0 0.00 0.00 0.00 89 1007.7
20260510010159 64 246 0.0 0.0 0.00 0.00 0.00 89 1007.6
20260510005655 64 247 0.0 0.0 0.00 0.00 0.00 89 1007.6
20260510005152 64 247 0.0 0.0 0.00 0.00 0.00 88 1007.4
20260510004650 65 247 0.0 0.0 0.00 0.00 0.00 87 1007.2
20260510004148 65 247 0.0 0.0 0.00 0.00 0.00 86 1007.1
20260510003645 66 247 0.0 0.0 0.00 0.00 0.00 86 1007.2
20260510003140 66 245 0.9 0.9 0.00 0.00 0.00 84 1007.3
20260510002635 66 237 0.0 0.0 0.00 0.00 0.00 83 1006.9
20260510002132 67 237 0.0 0.0 0.00 0.00 0.00 82 1007.1
20260510001629 67 236 0.0 0.0 0.00 0.00 0.00 80 1006.9
20260510001128 68 236 0.0 0.0 0.00 0.00 0.00 79 1007.0
20260510000628 68 236 0.0 0.0 0.00 0.00 0.00 78 1006.9
20260510000126 68 236 0.0 0.0 0.00 0.00 0.00 78 1006.9
20260509235621 69 236 0.0 0.0 0.00 0.00 0.00 77 1006.9
20260509235119 69 237 0.0 0.0 0.00 0.00 0.00 77 1006.6
20260509234614 69 236 0.0 0.0 0.00 0.00 0.00 77 1006.6
20260509234113 69 236 0.0 0.0 0.00 0.00 0.00 77 1006.8
20260509233610 69 236 0.0 0.0 0.00 0.00 0.00 77 1006.8
20260509233107 69 236 0.0 0.0 0.00 0.00 0.00 76 1006.7
20260509232603 69 235 0.9 0.9 0.00 0.00 0.00 75 1006.7
20260509232100 70 237 0.0 0.9 0.00 0.00 0.00 75 1006.6
20260509231556 70 231 0.9 1.7 0.00 0.00 0.00 75 1006.5
20260509231054 71 225 1.7 1.7 0.00 0.00 0.00 74 1006.7
20260509230551 71 234 0.9 1.7 0.00 0.00 0.00 75 1006.5
20260509230048 71 233 0.0 0.0 0.00 0.00 0.00 75 1006.4
20260509225548 71 230 0.9 0.9 0.00 0.00 0.00 74 1006.4
20260509225044 71 221 1.7 1.7 0.00 0.00 0.00 74 1006.3
20260509224540 71 233 0.0 0.0 0.00 0.00 0.00 72 1006.3
20260509224037 71 233 0.9 1.7 0.00 0.00 0.00 72 1006.3
20260509223534 72 232 0.9 0.9 0.00 0.00 0.00 71 1006.1
20260509223032 72 245 0.0 0.9 0.00 0.00 0.00 69 1006.1
20260509222527 72 197 0.0 0.0 0.00 0.00 0.00 70 1006.1
20260509222024 72 205 0.9 0.9 0.00 0.00 0.00 72 1006.2
20260509221519 72 308 0.9 0.9 0.00 0.00 0.00 71 1005.9
20260509221015 73 94 1.7 2.6 0.00 0.00 0.00 67 1006.1
20260509220511 73 238 0.9 0.9 0.00 0.00 0.00 69 1006.0
20260509220008 73 245 0.9 1.7 0.00 0.00 0.00 68 1006.0
20260509215503 73 233 0.9 0.9 0.00 0.00 0.00 69 1006.1
20260509215001 73 232 0.0 0.0 0.00 0.00 0.00 69 1006.0
20260509214458 73 255 0.0 0.0 0.00 0.00 0.00 70 1006.0
20260509213954 73 246 0.9 0.9 0.00 0.00 0.00 67 1006.0
20260509213450 73 229 0.9 1.7 0.00 0.00 0.00 67 1006.2
20260509212948 73 232 1.7 1.7 0.00 0.00 0.00 69 1005.7
20260509212445 73 274 0.0 0.9 0.00 0.00 0.00 69 1006.0
20260509211941 73 232 0.0 0.9 0.00 0.00 0.00 69 1005.9
20260509211437 74 236 0.0 0.9 0.00 0.00 0.00 68 1005.8
20260509210934 73 237 1.7 2.6 0.00 0.00 0.00 68 1006.0
20260509210431 73 237 0.0 0.0 0.00 0.00 0.00 68 1006.0
20260509205926 74 222 0.9 1.7 0.00 0.00 0.00 67 1005.9
20260509205421 74 230 1.7 1.7 0.00 0.00 0.00 67 1005.9
20260509204918 74 239 0.9 0.9 0.00 0.00 0.00 66 1005.8
20260509204414 73 244 0.0 0.9 0.00 0.00 0.00 67 1005.9
20260509203911 73 244 1.7 1.7 0.00 0.00 0.00 65 1006.0
20260509203407 74 234 0.9 1.7 0.00 0.00 0.00 65 1005.6
20260509202904 75 231 1.7 1.7 0.00 0.00 0.00 64 1005.2
20260509202400 75 292 1.7 2.6 0.00 0.00 0.00 67 1005.7
20260509201855 75 265 0.9 0.9 0.00 0.00 0.00 64 1005.9
20260509201351 75 279 0.9 0.9 0.00 0.00 0.00 64 1005.9
20260509200848 74 270 0.9 0.9 0.00 0.00 0.00 65 1005.9
20260509200343 74 228 0.9 0.9 0.00 0.00 0.00 67 1005.8
20260509195840 75 296 2.6 2.6 0.00 0.00 0.00 67 1005.9
20260509195340 75 248 0.9 1.7 0.00 0.00 0.00 65 1006.0
20260509194839 73 212 0.9 1.7 0.00 0.00 0.00 66 1006.0
20260509194336 73 241 0.0 0.9 0.00 0.00 0.00 68 1006.1
20260509193832 72 236 0.0 0.0 0.00 0.00 0.00 68 1006.1
20260509193327 72 261 0.9 1.7 0.00 0.00 0.00 70 1006.2
20260509192823 72 256 0.9 0.9 0.00 0.00 0.00 69 1006.1
20260509192319 71 230 0.9 1.7 0.00 0.00 0.00 72 1006.4
20260509191815 72 253 2.6 2.6 0.00 0.00 0.00 69 1006.3
20260509191311 72 280 0.9 1.7 0.00 0.00 0.00 69 1006.5
20260509190806 72 229 1.7 1.7 0.00 0.00 0.00 69 1006.7